Miscellaneous Local Product
Issued by NWS North Platte, NE

Home | Current Version | Previous Version | Text Only | Print | Product List | Glossary On
Versions: 1 2 3 4 5 6 7 8 9 10 11 12 13 14 15 16 17 18 19 20 21 22 23 24 25 26 27 28 29 30 31 32 33 34 35 36 37 38 39 40 41 42 43 44 45 46 47 48 49 50
000
AXUS43 KLBF 141410
MISLBF


WESTERN AND NORTH CENTRAL NEBRASKA HOURLY WEATHER ROUNDUP
NATIONAL WEATHER SERVICE NORTH PLATTE NE
800 AM CST SUN FEB 14 2016

NOTE: "FAIR" INDICATES FEW OR NO CLOUDS BELOW 12,000 FEET WITH NO
SIGNIFICANT WEATHER AND/OR OBSTRUCTIONS TO VISIBILITY.

NOTE: STATIONS NOT REPORTING VARIABLES SUCH AS SKY/WEATHER OR
PRESSURE ARE PROVIDED BY THE NEBRASKA DEPARTMENT OF
ROADS...RAWS...AND APRS NETWORKS...AND ARE NOT UNDER
NATIONAL WEATHER SERVICE QUALITY CONTROL.

...OBSERVATIONS IN AND NEAR THE EASTERN PANHANDLE OF NEBRASKA...

CITY           SKY/WX    TMP DP  RH WIND       PRES   REMARKS
PINE RIDGE     CLEAR     28  22  78 CALM      29.85F
CHADRON        PTCLDY    29  24  82 SW3       29.88F
ALLIANCE       CLOUDY    28  23  81 W3        29.86F
SIDNEY         CLOUDY    28  21  75 W8        29.90F WCI  20
CRESCENT LAKE    N/A     29  22  75 CALM        N/A
$$

...OBSERVATIONS IN NORTH CENTRAL NEBRASKA...

CITY           SKY/WX    TMP DP  RH WIND       PRES   REMARKS
VALENTINE      CLEAR     26  23  88 W8        29.85R WCI  18
THEDFORD       CLEAR     32  27  81 W7        29.85S WCI  26
AINSWORTH      CLEAR     31  27  87 W8        29.83S WCI  23
O`NEILL        CLOUDY    38  33  82 NW21G28   29.80S WCI  27
ORD            CLEAR     37  29  72 NW16      29.84S WCI  28
BROKEN BOW     CLEAR     34  26  72 NW13      29.85F WCI  25
VALENTINE NWR    N/A     33  26  76 NW9         N/A  WCI  25
BUTTE            N/A     32  32 100 NW9         N/A  WCI  24
HALSEY           N/A     36  26  66 W10G17      N/A  WCI  28
CHAMBERS         N/A     38  34  87 N7          N/A  WCI  33
EWING            N/A     37  34  89 NW12        N/A  WCI  29
$$

...OBSERVATIONS IN SOUTHWEST NEBRASKA AND FAR NORTHEAST COLORADO...

CITY           SKY/WX    TMP DP  RH WIND       PRES   REMARKS
WRAY           FAIR      30  24  78 SW7       29.96R WCI  23
HOLYOKE        FAIR      32  27  80 W7        29.93F WCI  26
IMPERIAL       CLOUDY    30  22  72 W8        29.94R WCI  22
OGALLALA       CLOUDY    32  25  74 SW8       29.92R WCI  25
NORTH PLATTE   CLOUDY    29  23  78 W6        29.90S WCI  23
MCCOOK         CLEAR     30  24  78 N14       29.91F WCI  19
LEXINGTON      CLEAR     32  26  78 W12       29.90S WCI  23
STAPLETON        N/A     29  26  87 CALM        N/A
$$

...OBSERVATIONS IN CENTRAL LINCOLN COUNTY AREA...

CITY           SKY/WX    TMP DP  RH WIND       PRES   REMARKS
N.P. AIRPORT   CLOUDY    29  23  78 W6        29.90S WCI  23
N.P. DOWNTOWN    N/A     29  26  87 CALM        N/A
N.P. SOUTHEAST   N/A     31  26  81 CALM        N/A
N.P. HILLCREST   N/A     30  27  88 NW3         N/A
$$

...SOME OBSERVATIONS FROM AROUND THE REGION...

CITY           SKY/WX    TMP DP  RH WIND       PRES   REMARKS
DENVER         CLOUDY    34  21  59 SE14      29.90F WCI  25
LARAMIE        CLOUDY    34  11  38 SW14      29.92F WCI  25
CHEYENNE       CLOUDY    38  12  34 VRB7      29.89F WCI  33
SCOTTSBLUFF    CLOUDY    25  21  85 N7        29.87F WCI  17
RAPID CITY     CLOUDY    32  24  72 CALM      29.82F
BISMARCK       CLOUDY    29  25  85 CALM      29.75F
PIERRE         CLOUDY    35  31  85 NW12      29.79F WCI  27
WINNER         FAIR      35  29  78 W12       29.82S WCI  27
SIOUX FALLS    CLOUDY    14  10  84 SE10      29.86F WCI   1
OMAHA          CLOUDY    22  11  62 S17       29.92F WCI   8
GRAND ISLAND   CLEAR     30  24  78 W13       29.87R WCI  20
KANSAS CITY    MOCLDY    26  13  57 S6        29.99F WCI  19
WICHITA        CLOUDY    25  11  55 CALM      29.99S
OKLAHOMA CITY  CLOUDY    49  46  90 E5        29.94F
LIBERAL        CLOUDY    30  23  74 NW7       30.01R WCI  23
HAYS           CLEAR     21  12  68 N7        29.95F WCI  13
GOODLAND       CLOUDY    24  19  81 W9        29.97F WCI  14
$$




USA.gov is the U.S. government's official web portal to all federal, state and local government web resources and services.